Weather History for KFHR - October, 2010

Change the Weather History Date:

Sunday, October 31, 2010

  Actual Average Record
Temperature  
Mean Temperature 50 °F -  
Max Temperature 54 °F 50 °F 57 °F (1997)
Min Temperature 46 °F 38 °F 27 °F (2002)
Degree Days  
Heating Degree Days 15    
Moisture  
Dew Point 44 °F    
Average Humidity 78    
Maximum Humidity 93    
Minimum Humidity 66    
Precipitation  
Precipitation 0.09 in - - ()
Sea Level Pressure  
Sea Level Pressure 29.97 in    
Wind  
Wind Speed 4 mph (ESE)    
Max Wind Speed 17 mph    
Max Gust Speed 28 mph    
Visibility 10 miles    
Events Rain    
Averages and records for this station are not official NWS values.
T = Trace of Precipitation, MM = Missing Value Source: NWS Daily Summary

Daily Weather History Graph

Daily Weather History Graph

Search for Another Location

Airport or City:

Trip Planner

Search our weather history database for the weather conditions in past years. The results will help you decide how hot, cold, wet, or windy it might be!

Date:

Astronomy

Oct. 31, 2010 Rise Set
Actual Time 7:56 AM PDT 5:53 PM PDT
Civil Twilight 7:24 AM PDT 6:26 PM PDT
Nautical Twilight 6:46 AM PDT 7:03 PM PDT
Astronomical Twilight 6:10 AM PDT 7:39 PM PDT
Moon 12:57 AM PDT (10/31) 3:00 PM PDT (10/31)
Length of Visible Light 11h 02m
Length of Day
9h 57m
Waning Crescent, 36% of the Moon is Illuminated
Oct 31
Waning Crescent
Nov 5
New
Nov 13
First Quarter
Nov 21
Full
Nov 28
Last Quarter

Hourly Weather History & Observations

Time (PDT) Temp. Dew Point Humidity Pressure Visibility Wind Dir Wind Speed Gust Speed Precip Events Conditions
12:53 AM 50.0 °F 46.9 °F 89% 29.74 in 10.0 mi Calm Calm - 0.04 in Rain Light Rain
2:53 AM 46.9 °F 45.0 °F 93% 29.79 in 10.0 mi Calm Calm - 0.00 in   Overcast
3:53 AM 46.9 °F 45.0 °F 93% 29.82 in 10.0 mi Calm Calm - 0.00 in Rain Light Rain
4:53 AM 48.0 °F 45.0 °F 89% 29.84 in 10.0 mi Variable 4.6 mph - 0.00 in   Mostly Cloudy
5:53 AM 48.0 °F 44.1 °F 86% 29.89 in 10.0 mi Calm Calm - N/A   Partly Cloudy
6:53 AM 46.9 °F 43.0 °F 86% 29.91 in 10.0 mi Variable 3.5 mph - N/A   Partly Cloudy
7:53 AM 48.0 °F 44.1 °F 86% 29.94 in 10.0 mi WSW 4.6 mph - N/A   Overcast
8:53 AM 48.0 °F 43.0 °F 83% 29.97 in 10.0 mi Calm Calm - 0.01 in   Overcast
9:53 AM 52.0 °F 43.0 °F 71% 30.01 in 10.0 mi Calm Calm - N/A   Overcast
11:53 AM 53.1 °F 45.0 °F 74% 30.06 in 10.0 mi SE 6.9 mph - N/A   Scattered Clouds
12:53 PM 54.0 °F 46.0 °F 75% 30.06 in 10.0 mi SE 8.1 mph - N/A   Overcast
1:53 PM 52.0 °F 44.1 °F 74% 30.06 in 10.0 mi East 6.9 mph - N/A   Overcast
2:53 PM 53.1 °F 44.1 °F 71% 30.06 in 10.0 mi East 6.9 mph - 0.00 in   Clear
3:53 PM 52.0 °F 45.0 °F 77% 30.05 in 10.0 mi ENE 6.9 mph - N/A   Clear
4:53 PM 53.1 °F 42.1 °F 66% 30.05 in 10.0 mi SE 9.2 mph - N/A   Clear
5:53 PM 52.0 °F 43.0 °F 71% 30.04 in 10.0 mi ESE 12.7 mph - N/A   Scattered Clouds
6:53 PM 51.1 °F 44.1 °F 77% 30.03 in 10.0 mi SE 10.4 mph - N/A   Overcast
7:53 PM 53.1 °F 42.1 °F 66% 30.02 in 10.0 mi ESE 12.7 mph 20.7 mph N/A   Overcast
8:53 PM 53.1 °F 42.1 °F 66% 30.01 in 10.0 mi SE 17.3 mph 27.6 mph N/A   Overcast
9:53 PM 52.0 °F 42.1 °F 69% 30.01 in 10.0 mi ESE 9.2 mph 21.9 mph 0.00 in Rain Light Rain
10:53 PM 52.0 °F 42.1 °F 69% 30.01 in 10.0 mi SE 15.0 mph - 0.00 in Rain Light Rain
11:53 PM 51.1 °F 43.0 °F 74% 29.99 in 10.0 mi SE 17.3 mph 26.5 mph 0.04 in Rain Light Rain